SCP
0 0 0 0 -0 0 0 0 0 0 0 0 0 0 0 -0 0 -0 -0 -0 0 -0 -0 -0 -0 0 0 0 0 0 0 1
0 0 -0 0 0 0 0 0 0 0 0 0 0 0 -0 0 -0 -0 -0 -0 0 -0 -0 -0 0 0 0 0 0 0 1 1
-0 -0 -0 -0 -0 0 0 0 0 0 0 0 0 0 -0 0 0 -0 -0 -0 -0 -0 -0 -0 -0 0 0 -0 -0 0 0 1
0 -0 -0 -0 0 0 0 0 0 0 0 0 0 0 0 0 0 -0 -0 0 0 -0 -0 -0 -0 -0 -0 0 0 0 0 0
-0 -0 0 0 0 0 0 0 -0 -0 0 0 0 -0 0 0 0 0 0 0 0 -0 -0 -0 -0 0 0 0 0 0 0 0
-0 0 0 -0 0 0 0 0 0 0 0 0 -0 0 0 -0 -0 -0 0 0 0 0 0 0 0 0 0 0 0 0 0 0
-0 0 0 -0 0 -0 0 0 -0 -0 0 0 0 0 -0 -0 -0 0 0 0 0 0 0 0 0 0 -0 0 0 0 0 0
-0 0 0 0 -0 -0 0 -0 0 -0 0 0 -0 0 0 -0 0 0 0 0 0 0 0 -0 -0 -0 -0 -0 -0 -0 0 0
-0 -0 0 0 0 0 0 0 0 -0 -0 -0 0 0 0 0 0 0 -0 0 0 0 -0 -0 -0 -0 -0 -0 -0 -0 -0 -0
-0 -0 0 0 0 0 0 0 0 0 -0 -0 0 0 0 0 0 0 0 0 0 -0 -0 -0 -0 -0 -0 -0 -0 -0 0 0
-0 -0 -0 -0 0 0 0 0 0 0 0 0 0 0 0 0 0 0 0 0 0 0 0 0 -0 -0 -0 -0 0 0 0 0
-0 -0 -0 -0 0 0 0 0 0 0 0 0 0 0 0 0 0 0 0 0 0 0 0 0 0 0 0 0 0 0 0 0
-0 -0 0 0 0 0 0 0 0 0 0 0 0 0 0 0 0 0 0 0 0 0 0 0 0 0 0 0 0 0 0 0
-0 -0 0 0 0 -0 -0 0 0 0 0 0 0 0 0 0 0 0 0 0 0 0 0 0 0 0 0 0 0 0 0 -0
-0 -0 0 0 0 -0 0 0 0 0 0 0 0 0 0 0 0 0 0 0 0 0 0 0 0 0 0 0 0 0 0 0
-0 -0 0 -0 0 -0 0 0 0 0 0 0 0 0 0 0 0 0 0 0 0 0 0 0 0 0 0 0 0 0 0 0
0 0 0 0 0 0 0 0 0 0 0 0 0 0 0 0 0 0 0 0 0 0 0 0 0 0 0 0 0 0 0 0
0 0 0 0 0 0 0 0 0 0 0 0 0 0 0 0 0 0 0 0 0 0 0 0 0 0 0 0 0 0 0 0
0 0 0 0 0 0 0 0 0 0 0 0 0 0 0 0 0 0 0 0 0 0 0 0 0 0 0 0 0 0 0 0
0 0 0 0 0 0 0 0 0 0 0 0 0 0 0 0 0 0 0 0 0 0 0 0 0 0 0 0 0 0 0 0
Wind_Speed_500mb
5 5 15 14 12 26 26 14 6 10 17 10 9 16 7 9 6 6 6 8 5 5 6 4 4 3 4 4 10 12 14 15
9 18 5 11 20 13 24 16 15 16 19 15 11 9 10 5 7 5 9 13 12 10 12 9 5 4 5 3 6 9 13 17
10 6 2 6 9 7 9 12 13 7 10 12 16 12 10 11 9 7 13 13 10 9 6 9 10 9 8 2 4 9 11 12
14 13 9 16 15 22 33 25 17 17 14 11 14 12 17 16 14 14 14 14 10 9 9 11 9 7 5 3 8 12 19 21
23 23 13 7 7 18 22 16 14 10 10 16 9 11 20 21 18 16 13 8 9 9 12 13 17 17 17 18 19 18 20 26
12 22 10 8 7 13 16 14 17 8 9 12 8 19 19 15 13 15 15 10 14 19 32 41 35 35 29 26 27 25 22 23
14 24 14 17 5 8 9 22 11 9 16 32 27 15 16 21 23 23 27 31 39 39 35 36 36 35 35 35 34 33 32 29
8 16 25 19 13 9 9 25 17 27 32 25 10 19 28 30 34 34 37 42 37 37 37 39 42 44 47 47 45 44 44 37
17 36 36 27 20 12 19 12 13 25 27 24 28 31 31 35 38 37 36 40 38 37 38 42 47 44 49 51 48 44 43 37
22 28 26 18 19 21 16 16 30 34 33 34 32 32 30 36 37 39 37 38 34 34 39 44 46 44 46 48 45 43 45 50
35 44 41 37 27 28 29 21 30 41 37 36 34 35 36 35 33 34 36 32 32 34 34 38 39 38 45 51 50 51 53 54
27 32 23 35 22 7 15 23 33 38 35 31 33 33 31 25 28 27 23 22 19 22 31 27 30 35 39 42 45 49 54 57
19 15 16 22 12 14 22 23 28 29 30 25 28 26 23 20 19 17 15 15 17 23 24 29 33 39 45 51 57 61 61 60
12 12 11 5 10 17 25 27 25 27 29 25 21 19 18 17 14 9 7 10 15 20 23 32 43 49 54 58 61 64 64 63
19 15 8 6 14 19 28 28 27 27 26 24 18 18 19 13 6 0 4 10 15 20 29 35 43 48 52 55 57 55 56 60
25 26 11 17 13 28 33 30 27 26 21 21 18 13 18 11 7 6 8 12 17 23 29 36 41 47 49 47 50 53 53 55
10 8 18 14 23 25 32 30 29 27 23 20 16 15 19 17 13 8 9 13 20 27 34 43 51 51 50 48 44 45 47 53
15 15 7 21 17 15 28 35 36 29 26 24 21 18 22 16 13 10 11 15 22 32 42 50 51 55 52 42 35 41 46 48
18 18 11 26 9 14 21 28 33 29 28 23 22 23 22 15 13 8 9 15 27 39 46 48 54 56 48 42 41 44 45 47
43 21 9 21 5 19 24 27 30 28 32 24 20 21 20 15 10 3 8 19 32 40 45 50 54 49 49 46 44 42 44 48
Wind_Direction_500mb
45 84 116 124 134 123 103 79 85 102 60 51 43 37 43 13 64 58 47 56 75 77 72 119 172 175 202 175 142 146 153 170
83 96 88 120 160 151 119 70 54 93 73 75 56 68 30 38 94 53 57 46 40 57 55 53 51 115 138 185 181 180 169 174
97 100 97 59 19 214 105 103 62 76 93 78 100 46 55 91 94 92 67 58 50 46 61 66 65 58 52 71 192 202 229 221
130 130 93 70 85 93 81 83 81 81 98 83 114 53 78 86 91 75 71 64 57 57 54 56 67 69 85 239 252 250 241 244
121 129 127 131 69 66 96 88 55 85 86 124 72 52 87 93 86 71 68 71 29 54 62 44 39 33 23 14 355 338 315 297
137 162 125 124 102 114 96 84 112 65 110 134 108 92 96 92 66 41 49 74 76 73 58 49 45 41 33 21 14 6 352 332
141 149 135 136 89 52 99 121 74 86 121 129 114 86 95 87 82 71 85 75 66 67 63 62 57 48 38 25 14 6 359 349
77 123 133 121 110 74 89 107 91 98 121 137 90 113 104 96 91 86 87 77 72 65 56 47 40 31 31 26 20 13 7 3
69 113 124 123 92 84 102 73 139 134 129 125 123 114 105 104 96 94 90 80 65 55 46 34 24 24 20 17 15 10 9 1
121 116 113 95 106 75 72 103 119 118 121 121 118 112 111 102 102 99 92 72 60 50 33 21 16 14 9 1 358 354 350 345
103 96 97 100 86 94 90 113 121 121 121 121 118 115 117 115 112 96 75 64 55 36 14 7 5 0 356 351 344 340 335 333
94 91 113 107 97 75 114 136 131 127 127 124 122 129 123 113 100 79 66 61 49 19 9 1 354 351 344 341 338 335 332 332
75 103 115 102 65 104 139 150 149 144 136 134 137 134 125 114 97 80 62 39 11 355 347 347 348 347 343 342 341 339 339 338
175 132 134 8 128 135 153 157 157 156 151 151 150 146 134 129 102 80 40 0 353 341 343 354 351 343 339 337 337 339 343 344
179 202 139 208 141 171 173 171 171 176 167 151 166 159 149 142 134 293 346 335 336 339 350 344 333 330 328 328 333 339 339 339
187 200 206 185 170 171 183 183 189 189 176 167 170 163 173 192 237 270 304 317 327 336 334 331 327 328 333 342 343 342 346 347
161 176 187 202 158 172 184 194 200 202 191 191 175 173 195 218 236 261 298 317 332 334 338 334 335 343 346 347 346 348 350 348
99 144 151 156 147 172 190 205 214 212 205 204 180 174 199 211 221 246 297 335 340 343 342 343 349 349 352 356 358 358 355 359
140 130 122 146 151 195 199 219 222 228 227 220 196 181 189 206 224 253 312 344 346 346 346 348 350 352 356 359 2 2 7 4
141 154 164 212 191 214 203 209 217 227 231 210 187 187 194 204 205 228 347 350 348 349 350 350 353 357 360 6 10 9 4 1
Wind_Speed_850mb
5 5 15 14 12 26 26 14 6 10 17 10 9 16 7 9 6 6 6 8 5 5 6 4 4 3 4 4 10 12 14 15
9 18 5 11 20 13 24 16 15 16 19 15 11 9 10 5 7 5 9 13 12 10 12 9 5 4 5 3 6 9 13 17
10 6 2 6 9 7 9 12 13 7 10 12 16 12 10 11 9 7 13 13 10 9 6 9 10 9 8 2 4 9 11 12
14 13 9 16 15 22 33 25 17 17 14 11 14 12 17 16 14 14 14 14 10 9 9 11 9 7 5 3 8 12 19 21
23 23 13 7 7 18 22 16 14 10 10 16 9 11 20 21 18 16 13 8 9 9 12 13 17 17 17 18 19 18 20 26
12 22 10 8 7 13 16 14 17 8 9 12 8 19 19 15 13 15 15 10 14 19 32 41 35 35 29 26 27 25 22 23
14 24 14 17 5 8 9 22 11 9 16 32 27 15 16 21 23 23 27 31 39 39 35 36 36 35 35 35 34 33 32 29
8 16 25 19 13 9 9 25 17 27 32 25 10 19 28 30 34 34 37 42 37 37 37 39 42 44 47 47 45 44 44 37
17 36 36 27 20 12 19 12 13 25 27 24 28 31 31 35 38 37 36 40 38 37 38 42 47 44 49 51 48 44 43 37
22 28 26 18 19 21 16 16 30 34 33 34 32 32 30 36 37 39 37 38 34 34 39 44 46 44 46 48 45 43 45 50
35 44 41 37 27 28 29 21 30 41 37 36 34 35 36 35 33 34 36 32 32 34 34 38 39 38 45 51 50 51 53 54
27 32 23 35 22 7 15 23 33 38 35 31 33 33 31 25 28 27 23 22 19 22 31 27 30 35 39 42 45 49 54 57
19 15 16 22 12 14 22 23 28 29 30 25 28 26 23 20 19 17 15 15 17 23 24 29 33 39 45 51 57 61 61 60
12 12 11 5 10 17 25 27 25 27 29 25 21 19 18 17 14 9 7 10 15 20 23 32 43 49 54 58 61 64 64 63
19 15 8 6 14 19 28 28 27 27 26 24 18 18 19 13 6 0 4 10 15 20 29 35 43 48 52 55 57 55 56 60
25 26 11 17 13 28 33 30 27 26 21 21 18 13 18 11 7 6 8 12 17 23 29 36 41 47 49 47 50 53 53 55
10 8 18 14 23 25 32 30 29 27 23 20 16 15 19 17 13 8 9 13 20 27 34 43 51 51 50 48 44 45 47 53
15 15 7 21 17 15 28 35 36 29 26 24 21 18 22 16 13 10 11 15 22 32 42 50 51 55 52 42 35 41 46 48
18 18 11 26 9 14 21 28 33 29 28 23 22 23 22 15 13 8 9 15 27 39 46 48 54 56 48 42 41 44 45 47
43 21 9 21 5 19 24 27 30 28 32 24 20 21 20 15 10 3 8 19 32 40 45 50 54 49 49 46 44 42 44 48
Wind_Direction_850mb
45 84 116 124 134 123 103 79 85 102 60 51 43 37 43 13 64 58 47 56 75 77 72 119 172 175 202 175 142 146 153 170
83 96 88 120 160 151 119 70 54 93 73 75 56 68 30 38 94 53 57 46 40 57 55 53 51 115 138 185 181 180 169 174
97 100 97 59 19 214 105 103 62 76 93 78 100 46 55 91 94 92 67 58 50 46 61 66 65 58 52 71 192 202 229 221
130 130 93 70 85 93 81 83 81 81 98 83 114 53 78 86 91 75 71 64 57 57 54 56 67 69 85 239 252 250 241 244
121 129 127 131 69 66 96 88 55 85 86 124 72 52 87 93 86 71 68 71 29 54 62 44 39 33 23 14 355 338 315 297
137 162 125 124 102 114 96 84 112 65 110 134 108 92 96 92 66 41 49 74 76 73 58 49 45 41 33 21 14 6 352 332
141 149 135 136 89 52 99 121 74 86 121 129 114 86 95 87 82 71 85 75 66 67 63 62 57 48 38 25 14 6 359 349
77 123 133 121 110 74 89 107 91 98 121 137 90 113 104 96 91 86 87 77 72 65 56 47 40 31 31 26 20 13 7 3
69 113 124 123 92 84 102 73 139 134 129 125 123 114 105 104 96 94 90 80 65 55 46 34 24 24 20 17 15 10 9 1
121 116 113 95 106 75 72 103 119 118 121 121 118 112 111 102 102 99 92 72 60 50 33 21 16 14 9 1 358 354 350 345
103 96 97 100 86 94 90 113 121 121 121 121 118 115 117 115 112 96 75 64 55 36 14 7 5 0 356 351 344 340 335 333
94 91 113 107 97 75 114 136 131 127 127 124 122 129 123 113 100 79 66 61 49 19 9 1 354 351 344 341 338 335 332 332
75 103 115 102 65 104 139 150 149 144 136 134 137 134 125 114 97 80 62 39 11 355 347 347 348 347 343 342 341 339 339 338
175 132 134 8 128 135 153 157 157 156 151 151 150 146 134 129 102 80 40 0 353 341 343 354 351 343 339 337 337 339 343 344
179 202 139 208 141 171 173 171 171 176 167 151 166 159 149 142 134 293 346 335 336 339 350 344 333 330 328 328 333 339 339 339
187 200 206 185 170 171 183 183 189 189 176 167 170 163 173 192 237 270 304 317 327 336 334 331 327 328 333 342 343 342 346 347
161 176 187 202 158 172 184 194 200 202 191 191 175 173 195 218 236 261 298 317 332 334 338 334 335 343 346 347 346 348 350 348
99 144 151 156 147 172 190 205 214 212 205 204 180 174 199 211 221 246 297 335 340 343 342 343 349 349 352 356 358 358 355 359
140 130 122 146 151 195 199 219 222 228 227 220 196 181 189 206 224 253 312 344 346 346 346 348 350 352 356 359 2 2 7 4
141 154 164 212 191 214 203 209 217 227 231 210 187 187 194 204 205 228 347 350 348 349 350 350 353 357 360 6 10 9 4 1